Hagerstown, MD

11:33 PM EDT on May 27, 2018 (GMT -0400)
Hagerstown Regional-Henson

Weather History for KHGR - June, 2014

Change the Weather History Date:

Sunday, June 8, 2014

  Actual Average Record
Temperature  
Mean Temperature 71 °F 69 °F  
Max Temperature 83 °F 79 °F 95 °F (2008)
Min Temperature 58 °F 59 °F 51 °F (1997)
Degree Days  
Heating Degree Days 0 1  
Month to date heating degree days 0 12  
Since 1 June heating degree days 0 12  
Since 1 July heating degree days 5370 5179  
Cooling Degree Days 6 5  
Month to date cooling degree days 43 37  
Year to date cooling degree days 125 113  
Since 1 June cooling degree days 43 37  
Growing Degree Days 22 (Base 50)    
Moisture  
Dew Point 63 °F    
Average Humidity 63    
Maximum Humidity 79    
Minimum Humidity 47    
Precipitation  
Precipitation 0.12 in 0.16 in 0.22 in (2015)
Month to date precipitation 0.59 1.33  
Year to date precipitation 13.07 17.53  
Sea Level Pressure  
Sea Level Pressure 29.89 in    
Wind  
Wind Speed 6 mph (SE)    
Max Wind Speed 21 mph    
Max Gust Speed 27 mph    
Visibility 7 miles    
Events Rain , Thunderstorm    
T = Trace of Precipitation, MM = Missing Value Source: NWS Daily Summary

Daily Weather History Graph

Daily Weather History Graph

Search for Another Location

Airport or City:

Astronomy

Jun. 08, 2014 Rise Set
Actual Time 5:42 AM EDT 8:37 PM EDT
Civil Twilight 5:10 AM EDT 9:09 PM EDT
Nautical Twilight 4:29 AM EDT 9:50 PM EDT
Astronomical Twilight 3:42 AM EDT 10:37 PM EDT
Moon 3:54 PM EDT (6/8) 2:34 AM EDT (6/8)
Length of Visible Light 15h 59m
Length of Day
14h 54m
Waxing Gibbous, 77% of the Moon is Illuminated
Jun 8
Waxing Gibbous
Jun 13
Full
Jun 19
Last Quarter
Jun 27
New
Jul 5
First Quarter

Hourly Weather History & Observations

Time (EDT) Temp. Heat Index Dew Point Humidity Pressure Visibility Wind Dir Wind Speed Gust Speed Precip Events Conditions
12:53 AM 64.9 °F - 55.0 °F 70% 30.01 in 10.0 mi Calm Calm - N/A   Clear
1:53 AM 63.0 °F - 55.0 °F 75% 29.99 in 10.0 mi East 5.8 mph - N/A   Clear
2:53 AM 63.0 °F - 54.0 °F 72% 29.98 in 10.0 mi Calm Calm - N/A   Clear
3:53 AM 64.0 °F - 54.0 °F 70% 29.97 in 10.0 mi Calm Calm - N/A   Clear
4:53 AM 63.0 °F - 54.0 °F 72% 29.96 in 10.0 mi East 5.8 mph - N/A   Clear
5:53 AM 62.1 °F - 54.0 °F 75% 29.96 in 10.0 mi Calm Calm - N/A   Clear
6:53 AM 64.9 °F - 55.0 °F 70% 29.97 in 10.0 mi East 3.5 mph - N/A   Partly Cloudy
7:53 AM 64.9 °F - 57.9 °F 78% 29.97 in 10.0 mi Calm Calm - N/A   Mostly Cloudy
8:53 AM 69.1 °F - 59.0 °F 70% 29.97 in 10.0 mi West 3.5 mph - N/A   Mostly Cloudy
9:53 AM 75.9 °F - 57.9 °F 54% 29.96 in 10.0 mi South 9.2 mph - N/A   Partly Cloudy
10:53 AM 77.0 °F - 59.0 °F 54% 29.94 in 10.0 mi SSE 11.5 mph - N/A   Mostly Cloudy
11:53 AM 80.1 °F 80.9 °F 60.1 °F 50% 29.93 in 10.0 mi South 13.8 mph 23.0 mph N/A   Clear
12:53 PM 82.0 °F 82.7 °F 61.0 °F 49% 29.90 in 10.0 mi South 19.6 mph 25.3 mph N/A   Clear
1:53 PM 81.0 °F 81.7 °F 61.0 °F 50% 29.90 in 10.0 mi SSE 17.3 mph - N/A   Clear
2:53 PM 77.0 °F - 64.0 °F 64% 29.90 in 7.0 mi South 13.8 mph 20.7 mph 0.00 in Rain Light Rain
4:07 PM 72.0 °F - 66.0 °F 81% 29.86 in 2.5 mi East 8.1 mph - 0.06 in Rain Light Rain
4:14 PM 72.0 °F - 66.0 °F 81% 29.86 in 8.0 mi East 5.8 mph - 0.06 in Rain Light Rain
4:53 PM 75.0 °F - 66.9 °F 76% 29.85 in 10.0 mi ESE 8.1 mph - 0.07 in   Scattered Clouds
5:53 PM 75.0 °F - 66.9 °F 76% 29.84 in 10.0 mi SSE 6.9 mph - N/A   Overcast
6:53 PM 75.9 °F - 64.9 °F 69% 29.83 in 10.0 mi SSE 8.1 mph - N/A   Overcast
7:30 PM 75.0 °F - 64.9 °F 71% 29.82 in 10.0 mi SE 8.1 mph - 0.01 in Rain , Thunderstorm Light Rain
7:45 PM 73.9 °F - 66.0 °F 76% 29.82 in 8.0 mi SE 8.1 mph - 0.01 in Rain Light Rain
7:53 PM 73.9 °F - 66.0 °F 76% 29.84 in 7.0 mi SE 5.8 mph - 0.02 in Rain , Thunderstorm Light Rain
8:16 PM 72.0 °F - 66.9 °F 84% 29.86 in 6.0 mi NW 16.1 mph 20.7 mph 0.02 in Rain , Thunderstorm Light Thunderstorms and Rain
8:25 PM 68.0 °F - 66.0 °F 93% 29.86 in 3.0 mi North 4.6 mph - 0.07 in Rain , Thunderstorm Heavy Rain
8:27 PM 68.0 °F - 66.0 °F 93% 29.86 in 2.5 mi North 5.8 mph - 0.11 in Rain , Thunderstorm Heavy Rain
8:30 PM 68.0 °F - 66.0 °F 93% 29.85 in 1.8 mi NNW 4.6 mph - 0.16 in Rain , Thunderstorm Heavy Thunderstorms and Rain
8:38 PM 69.1 °F - 66.9 °F 93% 29.85 in 2.0 mi Calm Calm - 0.22 in Rain , Thunderstorm Heavy Thunderstorms and Rain
8:45 PM 69.1 °F - 66.9 °F 93% 29.85 in 3.0 mi Calm Calm - 0.23 in Rain Light Rain
8:53 PM 69.1 °F - 66.9 °F 93% 29.87 in 1.8 mi Calm Calm - 0.33 in Rain Heavy Rain
9:01 PM 69.1 °F - 66.9 °F 93% 29.85 in 2.0 mi SE 4.6 mph - 0.06 in Rain , Thunderstorm Rain
9:07 PM 70.0 °F - 66.9 °F 90% 29.84 in 4.0 mi ESE 8.1 mph - 0.07 in Rain , Thunderstorm Light Rain
9:18 PM 69.1 °F - 68.0 °F 96% 29.84 in 4.0 mi ESE 9.2 mph - 0.08 in Rain Light Rain
9:51 PM 69.8 °F - 68.0 °F 94% 29.86 in 6.0 mi SE 3.5 mph - 0.08 in   Mostly Cloudy
9:53 PM 69.1 °F - 68.0 °F 96% 29.87 in 6.0 mi SE 3.5 mph - 0.08 in   Mostly Cloudy
10:13 PM 70.0 °F - 68.0 °F 93% 29.86 in 7.0 mi South 5.8 mph - N/A   Mostly Cloudy
10:20 PM 70.0 °F - 66.9 °F 90% 29.86 in 8.0 mi South 4.6 mph - N/A   Mostly Cloudy
10:27 PM 70.0 °F - 66.9 °F 90% 29.86 in 9.0 mi South 3.5 mph - N/A   Overcast
10:53 PM 70.0 °F - 68.0 °F 93% 29.88 in 5.0 mi WNW 3.5 mph - N/A   Overcast
11:15 PM 70.0 °F - 68.0 °F 93% 29.86 in 6.0 mi Calm Calm - N/A   Overcast
11:49 PM 69.8 °F - 66.2 °F 88% 29.87 in 9.0 mi WSW 3.5 mph - N/A   Overcast
11:53 PM 70.0 °F - 66.9 °F 90% 29.88 in 7.0 mi West 4.6 mph - N/A   Overcast
11:58 PM 69.1 °F - 66.9 °F 93% 29.87 in 2.5 mi WNW 5.8 mph - N/A   Overcast